Flag for Azerbaijan Weather past 2 weeks in Sumqayit, Azerbaijan

Now
45 °F

Passing clouds.


Feels Like: 39 °F
Forecast: 45 / 51 °F
Wind: 10 mph from South

Location: Baku / Bine Airport

Current Time: Dec 21, 2014 at 10:50:55 PM

Latest Report: Dec 21, 2014 at 10:00 PM


Visibility: 4 mi

Pressure: 30.07 "Hg

Humidity: 93%

Dew point: 43 °F

Location of SumqayitLocation

Historic Weather in Sumqayit — Graph

°F

Sumqayit temperature yesterday

Maximum temperature yesterday: 50 °F (at 11:30 AM)
Minimum temperature yesterday: 43 °F (at 12:00 AM)
Average temperature yesterday: 46 °F

Past Weeks' High & Low Weather Summary

 TemperatureHumidityPressure
High55 °F (Dec 10, 12:30 PM)100% (Dec 10, 7:30 AM)30.69 "Hg (Dec 10, 7:30 AM)
Low39 °F (Dec 6, 11:30 PM)66% (Dec 6, 9:00 PM)30.04 "Hg (Dec 13, 6:00 AM)
Average47 °F85%30.27 "Hg
* Reported Dec 6 9:00 PM — Dec 21 9:30 PM, Sumqayit, Weather by CustomWeather, © 2014

Note: Actual official high and low records may vary slightly from our data, if they occured in-between our weather recording intervals... More about our weather records

Advertising

Sumqayit weather history for previous 24 hours

 ConditionsComfort  
Time TempWeatherWind HumidityBarometerVisibility
9:30 PM
Dec 21
45 °FPassing clouds.9 mph93%30.07 "Hg4 mi
9:00 PM45 °FLow clouds.9 mph93%30.07 "Hg5 mi
8:30 PM45 °FLow clouds.7 mph93%30.09 "Hg5 mi
8:00 PM45 °FLow clouds.8 mph93%30.09 "Hg5 mi
7:30 PM45 °FOvercast.9 mph93%30.09 "HgN/A
7:00 PM45 °FOvercast.9 mph93%30.09 "HgN/A
6:30 PM45 °FOvercast.10 mph87%30.09 "HgN/A
6:00 PM45 °FOvercast.10 mph87%30.07 "HgN/A
5:30 PM45 °FOvercast.12 mph87%30.07 "HgN/A
5:00 PM45 °FPartly sunny.13 mph87%30.07 "HgN/A
4:30 PM45 °FPartly sunny.15 mph87%30.07 "Hg5 mi
4:00 PM45 °FLow clouds.14 mph87%30.07 "Hg5 mi
3:30 PM46 °FLow clouds.12 mph82%30.07 "Hg5 mi
3:00 PM46 °FOvercast.13 mph82%30.07 "Hg5 mi
2:30 PM46 °FOvercast.10 mph87%30.07 "HgN/A
2:00 PM46 °FOvercast.15 mph82%30.07 "HgN/A
1:30 PM46 °FOvercast.14 mph82%30.07 "Hg5 mi
1:00 PM46 °FOvercast.12 mph82%30.07 "Hg5 mi
12:30 PM46 °FMostly cloudy.13 mph82%30.09 "Hg5 mi
12:00 PM46 °FMostly cloudy.12 mph82%30.09 "HgN/A
11:30 AM46 °FMostly cloudy.12 mph82%30.09 "HgN/A
11:00 AM46 °FMostly cloudy.13 mph82%30.09 "HgN/A
10:30 AM46 °FMore clouds than sun.12 mph87%30.09 "HgN/A
10:00 AM46 °FBroken clouds.13 mph82%30.09 "HgN/A
9:30 AM45 °FMostly cloudy.13 mph87%30.09 "HgN/A
9:00 AM45 °FMostly cloudy.13 mph87%30.09 "Hg5 mi
8:30 AM45 °FMostly cloudy.10 mph87%30.09 "Hg5 mi
8:00 AM45 °FOvercast.13 mph87%30.09 "Hg5 mi
7:30 AM46 °FOvercast.15 mph82%30.09 "HgN/A
7:00 AM46 °FOvercast.13 mph82%30.09 "HgN/A
6:30 AM46 °FOvercast.14 mph82%30.09 "HgN/A
6:00 AM46 °FOvercast.13 mph87%30.07 "HgN/A
5:30 AM46 °FOvercast.13 mph82%30.07 "HgN/A
5:00 AM46 °FOvercast.10 mph87%30.09 "HgN/A
4:30 AM46 °FOvercast.10 mph87%30.09 "HgN/A
4:00 AM46 °FOvercast.10 mph82%30.09 "HgN/A
3:30 AM46 °FOvercast.10 mph82%30.09 "HgN/A
3:00 AM46 °FOvercast.9 mph82%30.09 "HgN/A
2:30 AM46 °FOvercast.9 mph82%30.09 "HgN/A
1:30 AM46 °FOvercast.7 mph82%30.12 "HgN/A
1:00 AM46 °FOvercast.7 mph87%30.12 "HgN/A
12:30 AM46 °FOvercast.6 mph87%30.12 "HgN/A
12:00 AM46 °FOvercast.6 mph87%30.12 "HgN/A
11:30 PM
Dec 20
46 °FOvercast.3 mph87%30.15 "HgN/A
11:00 PM46 °FOvercast.3 mph87%30.15 "HgN/A
10:30 PM46 °FOvercast.6 mph87%30.15 "HgN/A
10:00 PM46 °FOvercast.6 mph93%30.15 "HgN/A
Weather by CustomWeather, © 2014

See weather overviewHow to use our weather pages